Regional Weather Roundup
Issued by NWS

Home | Current Version | Previous Version | Graphics & Text | Print | Product List | Glossary On
Versions: 1 2 3 4 5 6 7 8 9 10 11 12 13 14 15 16 17 18 19 20 21 22 23 24 25 26 27 28 29 30 31 32 33 34 35 36 37 38 39 40 41 42 43 44 45 46 47 48 49 50
000
ASUS45 KBOI 030110
RWRID
WEATHER ROUNDUP FOR IDAHO
NATIONAL WEATHER SERVICE BOISE ID
600 PM MST MON MAR 02 2015

NOTE: "FAIR" INDICATES FEW OR NO CLOUDS BELOW 12000 FEET
WITH NO SIGNIFICANT WEATHER AND/OR OBSTRUCTIONS TO VISIBILITY

IDZ012-014-030200-
SOUTHWEST IDAHO


CITY           SKY/WX    TMP DP  RH WIND       PRES   REMARKS
BOISE          MOCLDY    46  20  35 NW12      29.72S
CALDWELL       MOCLDY    46  19  34 NW12      29.75S
MOUNTAIN HOME  MOCLDY    45  21  38 NW14      29.71R
$$

IDZ016-017-030200-
SOUTHCENTRAL IDAHO


CITY           SKY/WX    TMP DP  RH WIND       PRES   REMARKS
BURLEY         PTCLDY    45  14  28 NW8       29.62R
JEROME         PTCLDY    44  14  29 W15       29.66S
TWIN FALLS     PTCLDY    45  16  31 W13       29.66S
$$

IDZ019>023-030200-
SOUTHEAST IDAHO


CITY           SKY/WX    TMP DP  RH WIND       PRES   REMARKS
IDAHO FALLS    CLOUDY    39  24  55 S6        29.61F WCI  35
POCATELLO      MOCLDY    39  23  52 SW6       29.62F WCI  35
REXBURG        CLOUDY    39  32  76 SW5       29.60F
$$

IDZ006-010-011-018-031-032-030200-
CENTRAL IDAHO MOUNTAINS


CITY           SKY/WX    TMP DP  RH WIND       PRES   REMARKS
MCCALL         CLOUDY    33  20  58 N7        29.69S WCI  27
HAILEY         MOCLDY    39  18  41 S6        29.61F WCI  35
STANLEY          N/A     32  15  49 NW8       29.64S WCI  25
SALMON         CLOUDY    43  10  26 N7        29.64S
CHALLIS        CLOUDY    40   9  28 VRB3      29.61S
$$

IDZ002-004-006-007-026-030200-
NORTHERN IDAHO


CITY           SKY/WX    TMP DP  RH WIND       PRES   REMARKS
LEWISTON       CLOUDY    40  31  70 NW9       29.90R WCI  34
LOWELL           N/A     41  29  62 SE8       29.88R
COEUR D`ALENE  CLOUDY    37  23  56 NE8       29.87R WCI  31
MULLAN PASS    HVY SNOW  21  19  92 CALM      29.71S VSB 1/4
$$



USA.gov is the U.S. government's official web portal to all federal, state and local government web resources and services.